Weather History for KROW - August, 2013

Change the Weather History Date:

Tuesday, August 20, 2013

  Actual Average Record
Temperature  
Mean Temperature 81 °F 79 °F  
Max Temperature 97 °F 92 °F 107 °F (2007)
Min Temperature 65 °F 66 °F 54 °F (1897)
Degree Days  
Heating Degree Days 0 0  
Month to date heating degree days 0 0  
Since 1 June heating degree days 0 1  
Since 1 July heating degree days 0 0  
Cooling Degree Days 16 14  
Month to date cooling degree days 350 288  
Year to date cooling degree days 1690 1386  
Since 1 June cooling degree days 1367 1161  
Growing Degree Days 30 (Base 50)    
Moisture  
Dew Point 53 °F    
Average Humidity 46    
Maximum Humidity 73    
Minimum Humidity 19    
Precipitation  
Precipitation T in 0.06 in 1.45 in (1978)
Month to date precipitation 0.76 1.30  
Year to date precipitation 4.60 8.26  
Sea Level Pressure  
Sea Level Pressure 29.85 in    
Wind  
Wind Speed 5 mph (SW)    
Max Wind Speed 20 mph    
Max Gust Speed 23 mph    
Visibility 10 miles    
Events Thunderstorm    
T = Trace of Precipitation, MM = Missing Value Source: NWS Daily Summary

Daily Weather History Graph

Daily Weather History Graph

Search for Another Location

Airport or City:

Trip Planner

Search our weather history database for the weather conditions in past years. The results will help you decide how hot, cold, wet, or windy it might be!

Date:

Astronomy

Aug. 20, 2013 Rise Set
Actual Time 6:24 AM MDT 7:37 PM MDT
Civil Twilight 5:58 AM MDT 8:03 PM MDT
Nautical Twilight 5:27 AM MDT 8:34 PM MDT
Astronomical Twilight 4:55 AM MDT 9:06 PM MDT
Moon 7:14 PM MDT (8/20) 5:55 AM MDT (8/20)
Length of Visible Light 14h 05m
Length of Day
13h 13m
Full, 100% of the Moon is Illuminated
Aug 20
Full
Aug 20
Full
Aug 28
Last Quarter
Sep 5
New
Sep 12
First Quarter

Hourly Weather History & Observations

Time (MDT) Temp. Heat Index Dew Point Humidity Pressure Visibility Wind Dir Wind Speed Gust Speed Precip Events Conditions
12:51 AM 75.0 °F - 55.9 °F 51% 29.86 in 10.0 mi North 6.9 mph - N/A   Clear
1:51 AM 75.9 °F - 55.0 °F 48% 29.85 in 10.0 mi WNW 8.1 mph - N/A   Clear
2:51 AM 73.0 °F - 55.9 °F 55% 29.84 in 10.0 mi Calm Calm - N/A   Clear
3:51 AM 68.0 °F - 57.0 °F 68% 29.84 in 10.0 mi Calm Calm - N/A   Clear
4:51 AM 68.0 °F - 57.0 °F 68% 29.85 in 10.0 mi Calm Calm - N/A   Clear
5:51 AM 70.0 °F - 55.0 °F 59% 29.86 in 10.0 mi Calm Calm - N/A   Clear
6:51 AM 66.9 °F - 57.0 °F 70% 29.88 in 10.0 mi Calm Calm - N/A   Clear
7:51 AM 73.0 °F - 55.9 °F 55% 29.89 in 10.0 mi Calm Calm - N/A   Clear
8:51 AM 77.0 °F - 55.9 °F 48% 29.88 in 10.0 mi Calm Calm - N/A   Clear
9:51 AM 81.0 °F 80.8 °F 55.9 °F 42% 29.88 in 10.0 mi Calm Calm - N/A   Clear
10:51 AM 84.9 °F 83.6 °F 55.0 °F 36% 29.88 in 10.0 mi Calm Calm - N/A   Clear
11:51 AM 88.0 °F 85.9 °F 54.0 °F 31% 29.86 in 10.0 mi ESE 4.6 mph - N/A   Clear
12:51 PM 91.0 °F 88.5 °F 53.1 °F 27% 29.84 in 10.0 mi SSE 5.8 mph - N/A   Clear
1:51 PM 93.0 °F - 51.1 °F 24% 29.82 in 10.0 mi SSW 4.6 mph - N/A   Clear
2:51 PM 95.0 °F - 48.9 °F 21% 29.80 in 10.0 mi Variable 4.6 mph - N/A   Clear
3:51 PM 95.0 °F - 46.9 °F 19% 29.78 in 10.0 mi SW 6.9 mph - N/A   Clear
4:51 PM 96.1 °F - 48.9 °F 20% 29.77 in 10.0 mi South 10.4 mph - N/A   Clear
5:51 PM 95.0 °F - 48.9 °F 21% 29.76 in 10.0 mi WSW 5.8 mph - N/A   Clear
6:51 PM 93.0 °F - 50.0 °F 23% 29.78 in 10.0 mi West 12.7 mph - N/A   Mostly Cloudy
7:02 PM 93.2 °F - 50.0 °F 23% 30.00 in 10.0 mi West 10.4 mph - N/A Thunderstorm Overcast
7:51 PM 86.0 °F 84.9 °F 57.0 °F 37% 29.83 in 10.0 mi WSW 12.7 mph 16.1 mph 0.00 in Thunderstorm Thunderstorm
8:13 PM 86.0 °F 84.5 °F 55.4 °F 35% 30.03 in 10.0 mi SW 8.1 mph - N/A   Overcast
8:51 PM 87.1 °F - 52.0 °F 30% 29.82 in 10.0 mi WSW 16.1 mph 23.0 mph N/A   Scattered Clouds
9:51 PM 84.9 °F - 51.1 °F 31% 29.85 in 10.0 mi SE 8.1 mph - N/A   Clear
10:51 PM 81.0 °F 80.5 °F 54.0 °F 39% 29.86 in 10.0 mi South 10.4 mph - N/A   Clear
11:51 PM 79.0 °F - 55.0 °F 44% 29.86 in 10.0 mi South 10.4 mph - N/A   Clear